Location: Frankfurt+am+Main
(50.1100°N, 8.4815°E)
Time: 13:11:23
(UTC+01:00)

ISS - Pass Details

Date: 11 November 2017
Orbit: 401 x 407 km, 51.6° (Epoch: 18 November)

Event Time Altitude Azimuth Distance (km) Brightness Sun altitude
Exits shadow 06:42:56 11° 283° (WNW) 1,380 -1.8 -8.2°
Maximum altitude 06:45:56 56° 205° (SSW) 482 -3.5 -7.8°
Drops below altitude 10° 06:49:08 10° 125° (SE) 1,452 0.4 -7.3°
Sets 06:51:14 0° 121° (ESE) 2,309 2.0 -7.0°
